When you browse on this site, cookies collect data to enhance your experience and personalize the content and advertising you see.
Visit our Privacy Policy to learn more. By continuing to use the site, you agree to this use of cookies and data.
  • Em Portugal
  • Lista de países
  • Para 7 dias
  • Temperatura da água
  • Mapa do tempo
  • Widgets de tempo
  • user-avatar
    Iniciar Sessão

    Previsão horária em Babeevo

    Hoje, 25 Maio, Segunda-feira

    Tempo Temperatura Precipitação Vento Pressão Humidade
    00:00 +7°C° 0 mm 2 m/s 753 mmHg 92%
    01:00 +7°C° 0 mm 1 m/s 754 mmHg 92%
    02:00 +7°C° 0 mm 1 m/s 754 mmHg 93%
    03:00 +6°C° 0 mm 0 m/s 754 mmHg 94%
    04:00 +7°C° 0 mm 1 m/s 755 mmHg 93%
    05:00 +8°C° 0 mm 1 m/s 755 mmHg 92%
    06:00 +8°C° 0 mm 2 m/s 755 mmHg 91%
    07:00 +9°C° 0 mm 2 m/s 756 mmHg 84%
    08:00 +12°C° 0 mm 2 m/s 756 mmHg 76%
    09:00 +13°C° 0 mm 3 m/s 756 mmHg 69%
    10:00 +14°C° 0.1 mm 3 m/s 756 mmHg 63%
    11:00 +16°C° 0.1 mm 3 m/s 757 mmHg 57%
    12:00 +17°C° 0.1 mm 4 m/s 757 mmHg 52%
    13:00 +17°C° 0 mm 3 m/s 757 mmHg 50%
    14:00 +18°C° 0 mm 3 m/s 757 mmHg 49%
    15:00 +18°C° 0 mm 3 m/s 757 mmHg 48%
    16:00 +18°C° 0 mm 2 m/s 757 mmHg 53%
    17:00 +17°C° 0 mm 2 m/s 757 mmHg 57%
    18:00 +17°C° 0 mm 2 m/s 758 mmHg 62%
    19:00 +15°C° 0 mm 1 m/s 758 mmHg 67%
    20:00 +13°C° 0 mm 1 m/s 758 mmHg 72%
    21:00 +10°C° 0 mm 0 m/s 759 mmHg 78%
    22:00 +9°C° 0 mm 0 m/s 759 mmHg 79%
    23:00 +9°C° 0 mm 0 m/s 759 mmHg 80%

    Amanhã, 26 Maio, Terça-feira

    Tempo Temperatura Precipitação Vento Pressão Humidade
    00:00 +9°C° 0 mm 0 m/s 759 mmHg 82%
    01:00 +9°C° 0 mm 0 m/s 759 mmHg 81%
    02:00 +10°C° 0 mm 1 m/s 760 mmHg 80%
    03:00 +10°C° 0 mm 1 m/s 760 mmHg 80%
    04:00 +10°C° 0 mm 1 m/s 760 mmHg 79%
    05:00 +11°C° 0 mm 1 m/s 760 mmHg 79%
    06:00 +12°C° 0 mm 1 m/s 760 mmHg 79%
    07:00 +13°C° 0 mm 2 m/s 760 mmHg 74%
    08:00 +14°C° 0 mm 2 m/s 760 mmHg 70%
    09:00 +15°C° 0 mm 2 m/s 760 mmHg 66%
    10:00 +16°C° 0 mm 3 m/s 760 mmHg 63%
    11:00 +17°C° 0 mm 3 m/s 759 mmHg 60%
    12:00 +17°C° 0 mm 3 m/s 759 mmHg 57%
    13:00 +17°C° 0.2 mm 4 m/s 759 mmHg 61%
    14:00 +16°C° 0.2 mm 5 m/s 759 mmHg 66%
    15:00 +15°C° 0.2 mm 5 m/s 758 mmHg 70%
    16:00 +14°C° 0.6 mm 5 m/s 758 mmHg 76%
    17:00 +12°C° 0.6 mm 5 m/s 757 mmHg 81%
    18:00 +11°C° 0.6 mm 4 m/s 757 mmHg 86%
    19:00 +10°C° 1.5 mm 5 m/s 757 mmHg 89%
    20:00 +10°C° 1.5 mm 5 m/s 756 mmHg 92%
    21:00 +9°C° 1.5 mm 6 m/s 756 mmHg 94%
    22:00 +10°C° 0.4 mm 6 m/s 755 mmHg 94%
    23:00 +10°C° 0.4 mm 5 m/s 755 mmHg 94%

    Depois de amanhã, 27 Maio, Quarta-feira

    Tempo Temperatura Precipitação Vento Pressão Humidade
    00:00 +10°C° 0.4 mm 5 m/s 754 mmHg 94%
    01:00 +10°C° 1 mm 5 m/s 753 mmHg 94%
    02:00 +10°C° 1 mm 5 m/s 753 mmHg 94%
    03:00 +10°C° 1 mm 5 m/s 752 mmHg 94%
    04:00 +10°C° 0.1 mm 5 m/s 752 mmHg 94%
    05:00 +9°C° 0.1 mm 5 m/s 752 mmHg 94%
    06:00 +9°C° 0.1 mm 5 m/s 752 mmHg 94%
    07:00 +9°C° 0 mm 5 m/s 752 mmHg 93%
    08:00 +11°C° 0 mm 4 m/s 752 mmHg 93%
    09:00 +11°C° 0 mm 4 m/s 752 mmHg 92%
    10:00 +11°C° 0 mm 3 m/s 752 mmHg 90%
    11:00 +12°C° 0 mm 3 m/s 752 mmHg 88%
    12:00 +12°C° 0 mm 3 m/s 752 mmHg 86%
    13:00 +13°C° 0 mm 3 m/s 752 mmHg 84%
    14:00 +13°C° 0 mm 3 m/s 753 mmHg 82%
    15:00 +13°C° 0 mm 3 m/s 753 mmHg 80%
    16:00 +13°C° 0 mm 3 m/s 753 mmHg 80%
    17:00 +14°C° 0 mm 2 m/s 753 mmHg 80%
    18:00 +14°C° 0 mm 2 m/s 753 mmHg 80%
    19:00 +13°C° 0 mm 2 m/s 753 mmHg 84%
    20:00 +11°C° 0 mm 1 m/s 753 mmHg 89%
    21:00 +10°C° 0 mm 1 m/s 753 mmHg 94%
    22:00 +10°C° 0 mm 1 m/s 754 mmHg 94%
    23:00 +8°C° 0 mm 0 m/s 754 mmHg 94%

    28 Maio, Quinta-feira

    Tempo Temperatura Precipitação Vento Pressão Humidade
    00:00 +8°C° 0 mm 0 m/s 754 mmHg 94%
    01:00 +9°C° 0 mm 1 m/s 754 mmHg 95%
    02:00 +9°C° 0 mm 1 m/s 754 mmHg 95%
    03:00 +9°C° 0 mm 1 m/s 754 mmHg 96%
    04:00 +10°C° 0 mm 1 m/s 754 mmHg 95%
    05:00 +11°C° 0 mm 1 m/s 754 mmHg 94%
    06:00 +12°C° 0 mm 1 m/s 754 mmHg 92%
    07:00 +14°C° 0 mm 2 m/s 754 mmHg 85%
    08:00 +16°C° 0 mm 2 m/s 754 mmHg 78%
    09:00 +17°C° 0 mm 2 m/s 754 mmHg 71%
    10:00 +18°C° 0.1 mm 3 m/s 754 mmHg 69%
    11:00 +19°C° 0.1 mm 3 m/s 754 mmHg 67%
    12:00 +20°C° 0.1 mm 4 m/s 754 mmHg 65%
    13:00 +20°C° 0.1 mm 3 m/s 753 mmHg 64%
    14:00 +21°C° 0.1 mm 3 m/s 753 mmHg 64%
    15:00 +21°C° 0.1 mm 3 m/s 753 mmHg 63%
    16:00 +20°C° 0.3 mm 2 m/s 753 mmHg 68%
    17:00 +20°C° 0.3 mm 2 m/s 753 mmHg 72%
    18:00 +20°C° 0.3 mm 1 m/s 753 mmHg 77%
    19:00 +19°C° 0.1 mm 1 m/s 753 mmHg 81%
    20:00 +18°C° 0.1 mm 1 m/s 753 mmHg 85%
    21:00 +16°C° 0.1 mm 1 m/s 753 mmHg 89%
    22:00 +15°C° 0 mm 1 m/s 753 mmHg 89%
    23:00 +15°C° 0 mm 1 m/s 753 mmHg 89%

    29 Maio, Sexta-feira

    Tempo Temperatura Precipitação Vento Pressão Humidade
    00:00 +15°C° 0 mm 2 m/s 753 mmHg 89%
    01:00 +15°C° 0 mm 2 m/s 753 mmHg 90%
    02:00 +14°C° 0 mm 3 m/s 753 mmHg 91%
    03:00 +14°C° 0 mm 3 m/s 752 mmHg 92%
    04:00 +14°C° 0 mm 3 m/s 752 mmHg 91%
    05:00 +14°C° 0 mm 3 m/s 752 mmHg 90%
    06:00 +14°C° 0 mm 3 m/s 752 mmHg 89%
    07:00 +17°C° 0 mm 4 m/s 752 mmHg 83%
    08:00 +19°C° 0 mm 4 m/s 752 mmHg 77%
    09:00 +20°C° 0 mm 5 m/s 752 mmHg 71%
    10:00 +22°C° 0 mm 5 m/s 752 mmHg 67%
    11:00 +23°C° 0 mm 5 m/s 752 mmHg 64%
    12:00 +25°C° 0 mm 5 m/s 752 mmHg 60%
    13:00 +25°C° 0 mm 5 m/s 752 mmHg 61%
    14:00 +25°C° 0 mm 5 m/s 752 mmHg 62%
    15:00 +26°C° 0 mm 5 m/s 751 mmHg 62%
    16:00 +25°C° 0 mm 5 m/s 751 mmHg 65%
    17:00 +25°C° 0 mm 4 m/s 751 mmHg 69%
    18:00 +23°C° 0 mm 4 m/s 751 mmHg 72%
    19:00 +22°C° 0 mm 4 m/s 751 mmHg 76%
    20:00 +20°C° 0 mm 4 m/s 752 mmHg 80%
    21:00 +18°C° 0 mm 4 m/s 752 mmHg 84%
    22:00 +18°C° 0 mm 4 m/s 752 mmHg 85%
    23:00 +17°C° 0 mm 4 m/s 752 mmHg 86%

    30 Maio, Sábado

    Tempo Temperatura Precipitação Vento Pressão Humidade
    00:00 +16°C° 0 mm 3 m/s 752 mmHg 88%
    01:00 +16°C° 0 mm 3 m/s 752 mmHg 89%
    02:00 +14°C° 0 mm 4 m/s 752 mmHg 90%
    03:00 +14°C° 0 mm 4 m/s 752 mmHg 91%
    04:00 +15°C° 0 mm 4 m/s 752 mmHg 89%
    05:00 +15°C° 0 mm 4 m/s 752 mmHg 86%
    06:00 +17°C° 0 mm 4 m/s 752 mmHg 83%
    07:00 +17°C° 0 mm 5 m/s 752 mmHg 78%
    08:00 +20°C° 0 mm 5 m/s 752 mmHg 74%
    09:00 +21°C° 0 mm 6 m/s 752 mmHg 69%
    10:00 +23°C° 0 mm 6 m/s 752 mmHg 66%
    11:00 +24°C° 0 mm 6 m/s 752 mmHg 64%
    12:00 +26°C° 0 mm 7 m/s 752 mmHg 61%
    13:00 +26°C° 0 mm 7 m/s 752 mmHg 61%
    14:00 +26°C° 0 mm 7 m/s 752 mmHg 60%
    15:00 +26°C° 0 mm 7 m/s 751 mmHg 60%
    16:00 +26°C° 0 mm 6 m/s 751 mmHg 63%
    17:00 +24°C° 0 mm 6 m/s 751 mmHg 66%
    18:00 +23°C° 0 mm 6 m/s 751 mmHg 69%
    19:00 +22°C° 0 mm 6 m/s 751 mmHg 72%
    20:00 +20°C° 0 mm 5 m/s 751 mmHg 74%
    21:00 +19°C° 0 mm 5 m/s 751 mmHg 77%
    22:00 +17°C° 0 mm 5 m/s 751 mmHg 78%
    23:00 +17°C° 0 mm 5 m/s 751 mmHg 80%
    Mostrar mais